LXJ952 KPDK-KEYW

Flight info

Callsign LXJ952
Flight time 1h 16m
Altitude 41000
Route SOONE NOKIE OTK PIE CARNU
Aircraft C750/M-VGDW/C

Departure

Time 2026-05-05 22:05
Airport DeKalb Peachtree Airport (KPDK)

Arrival

Time 2026-05-05 23:22
Airport Key West International Airport (KEYW)
Time Latitude Longitude Altitude Speed Heading
2026-05-05 22:00 33.87497 -84.30480 998 ft 0 kts 62°
2026-05-05 22:02 33.87499 -84.30456 991 ft 10 kts 100°
2026-05-05 22:03 33.87482 -84.30386 996 ft 12 kts 37°
2026-05-05 22:03 33.87607 -84.30329 992 ft 26 kts 20°
2026-05-05 22:03 33.87830 -84.30228 987 ft 40 kts 20°
2026-05-05 22:03 33.88086 -84.30113 992 ft 38 kts 20°
2026-05-05 22:04 33.88332 -84.30002 988 ft 38 kts 20°
2026-05-05 22:04 33.88458 -84.29917 989 ft 15 kts 91°
2026-05-05 22:04 33.88410 -84.29753 990 ft 24 kts 115°
2026-05-05 22:04 33.88249 -84.29779 990 ft 49 kts 200°
2026-05-05 22:05 33.87588 -84.30073 1029 ft 138 kts 200°
2026-05-05 22:05 33.86594 -84.30543 1303 ft 171 kts 201°
2026-05-05 22:05 33.85639 -84.31536 1724 ft 199 kts 236°
2026-05-05 22:05 33.85062 -84.33192 2187 ft 233 kts 246°
2026-05-05 22:06 33.84404 -84.35130 2679 ft 263 kts 244°
2026-05-05 22:06 33.83233 -84.36710 3944 ft 248 kts 210°
2026-05-05 22:06 33.81614 -84.37330 5180 ft 248 kts 189°
2026-05-05 22:06 33.79866 -84.37224 6175 ft 256 kts 171°
2026-05-05 22:07 33.78125 -84.36699 7165 ft 262 kts 169°
2026-05-05 22:07 33.76301 -84.36227 8081 ft 273 kts 173°
2026-05-05 22:07 33.74408 -84.35830 9122 ft 279 kts 175°
2026-05-05 22:07 33.72458 -84.35403 9988 ft 291 kts 174°
2026-05-05 22:08 33.70410 -84.34921 10477 ft 311 kts 174°
2026-05-05 22:08 33.68189 -84.34402 10704 ft 339 kts 174°
2026-05-05 22:08 33.65785 -84.33848 10972 ft 361 kts 174°
2026-05-05 22:08 33.63328 -84.33273 11836 ft 361 kts 173°
2026-05-05 22:09 33.60837 -84.32695 12554 ft 367 kts 174°
2026-05-05 22:09 33.58317 -84.32116 13297 ft 372 kts 174°
2026-05-05 22:09 33.55754 -84.31529 13979 ft 377 kts 174°
2026-05-05 22:09 33.53159 -84.30930 14645 ft 381 kts 174°
2026-05-05 22:10 33.50537 -84.30324 15335 ft 385 kts 173°
2026-05-05 22:10 33.47893 -84.29716 16002 ft 389 kts 173°
2026-05-05 22:10 33.45219 -84.29102 16682 ft 394 kts 173°
2026-05-05 22:10 33.42508 -84.28479 17377 ft 398 kts 173°
2026-05-05 22:11 33.39771 -84.27850 18103 ft 403 kts 173°
2026-05-05 22:11 33.37039 -84.27222 18735 ft 408 kts 173°
2026-05-05 22:11 33.34236 -84.26578 19361 ft 413 kts 173°
2026-05-05 22:11 33.31399 -84.25928 20009 ft 418 kts 173°
2026-05-05 22:12 33.28529 -84.25272 20671 ft 422 kts 174°
2026-05-05 22:12 33.25621 -84.24606 21305 ft 428 kts 174°
2026-05-05 22:12 33.22678 -84.23932 21944 ft 434 kts 174°
2026-05-05 22:12 33.19697 -84.23251 22593 ft 439 kts 174°
2026-05-05 22:13 33.16678 -84.22561 23242 ft 444 kts 174°
2026-05-05 22:13 33.13628 -84.21820 23801 ft 452 kts 172°
2026-05-05 22:13 33.10617 -84.20555 24332 ft 464 kts 161°
2026-05-05 22:13 33.07751 -84.18714 24897 ft 474 kts 151°
2026-05-05 22:14 33.05114 -84.16297 25433 ft 483 kts 141°
2026-05-05 22:14 33.02800 -84.13355 25976 ft 490 kts 131°
2026-05-05 22:14 33.00637 -84.10186 26522 ft 495 kts 131°
2026-05-05 22:14 32.98448 -84.07000 27082 ft 499 kts 131°
2026-05-05 22:15 32.96231 -84.03800 27622 ft 503 kts 131°
2026-05-05 22:15 32.93995 -84.00570 28152 ft 508 kts 131°
2026-05-05 22:15 32.91743 -83.97298 28696 ft 513 kts 131°
2026-05-05 22:15 32.89473 -83.94005 29240 ft 517 kts 131°
2026-05-05 22:16 32.87176 -83.90691 29754 ft 521 kts 131°
2026-05-05 22:16 32.84862 -83.87356 30217 ft 526 kts 131°
2026-05-05 22:16 32.82522 -83.83979 30593 ft 532 kts 131°
2026-05-05 22:16 32.80161 -83.80570 30966 ft 537 kts 131°
2026-05-05 22:17 32.77814 -83.77189 31520 ft 537 kts 131°
2026-05-05 22:17 32.75426 -83.73758 32009 ft 540 kts 131°
2026-05-05 22:17 32.72838 -83.70525 32385 ft 542 kts 140°
2026-05-05 22:17 32.69874 -83.67772 32947 ft 538 kts 149°
2026-05-05 22:18 32.66655 -83.65561 33462 ft 535 kts 159°
2026-05-05 22:18 32.63217 -83.63913 33942 ft 530 kts 168°
2026-05-05 22:18 32.59668 -83.62860 34452 ft 521 kts 177°
2026-05-05 22:18 32.56105 -83.62168 35071 ft 517 kts 179°
2026-05-05 22:19 32.52563 -83.61476 35672 ft 516 kts 179°
2026-05-05 22:19 32.49013 -83.60772 36279 ft 516 kts 179°
2026-05-05 22:19 32.45483 -83.60080 36864 ft 515 kts 179°
2026-05-05 22:19 32.41947 -83.59395 37493 ft 513 kts 179°
2026-05-05 22:20 32.38433 -83.58712 38129 ft 512 kts 179°
2026-05-05 22:20 32.34913 -83.58022 38748 ft 511 kts 179°
2026-05-05 22:20 32.31405 -83.57337 39267 ft 510 kts 180°
2026-05-05 22:20 32.27911 -83.56658 39844 ft 507 kts 180°
2026-05-05 22:21 32.24439 -83.55984 40381 ft 505 kts 180°
2026-05-05 22:21 32.20984 -83.55312 40861 ft 503 kts 180°
2026-05-05 22:21 32.17512 -83.54641 41001 ft 510 kts 180°
2026-05-05 22:22 32.10363 -83.53264 41003 ft 530 kts 179°
2026-05-05 22:22 32.02967 -83.51821 41016 ft 546 kts 179°
2026-05-05 22:23 31.95452 -83.50373 41021 ft 556 kts 179°
2026-05-05 22:23 31.87775 -83.48884 41032 ft 559 kts 179°
2026-05-05 22:24 31.80112 -83.47409 41022 ft 557 kts 179°
2026-05-05 22:24 31.72452 -83.45936 41022 ft 557 kts 179°
2026-05-05 22:25 31.64797 -83.44465 41025 ft 557 kts 179°
2026-05-05 22:25 31.57137 -83.42997 41028 ft 558 kts 179°
2026-05-05 22:26 31.49461 -83.41527 41038 ft 559 kts 179°
2026-05-05 22:26 31.41799 -83.40062 41040 ft 558 kts 179°
2026-05-05 22:27 31.34145 -83.38603 41032 ft 557 kts 179°
2026-05-05 22:27 31.26490 -83.37145 41024 ft 557 kts 179°
2026-05-05 22:28 31.18844 -83.35691 41001 ft 556 kts 179°
2026-05-05 22:28 31.11202 -83.34240 41002 ft 556 kts 179°
2026-05-05 22:29 31.03565 -83.32793 41004 ft 555 kts 179°
2026-05-05 22:29 30.95985 -83.31359 41002 ft 555 kts 179°
2026-05-05 22:30 30.88307 -83.29909 41023 ft 555 kts 179°
2026-05-05 22:30 30.80739 -83.28481 41016 ft 555 kts 179°
2026-05-05 22:31 30.73131 -83.26909 41018 ft 556 kts 178°
2026-05-05 22:31 30.65536 -83.25317 41021 ft 555 kts 178°
2026-05-05 22:32 30.57949 -83.23690 41033 ft 555 kts 178°
2026-05-05 22:32 30.50361 -83.22085 41024 ft 553 kts 178°
2026-05-05 22:33 30.42795 -83.20479 41029 ft 553 kts 178°
2026-05-05 22:33 30.35235 -83.18879 41031 ft 552 kts 178°
2026-05-05 22:34 30.27680 -83.17283 41034 ft 551 kts 178°
2026-05-05 22:34 30.20138 -83.15691 41029 ft 551 kts 178°
2026-05-05 22:35 30.13873 -83.14372 41028 ft 550 kts 178°
2026-05-05 22:35 30.06341 -83.12787 41025 ft 549 kts 178°
2026-05-05 22:36 29.98827 -83.11208 41026 ft 548 kts 178°
2026-05-05 22:36 29.91319 -83.09634 41020 ft 548 kts 178°
2026-05-05 22:37 29.83823 -83.08064 41023 ft 547 kts 178°
2026-05-05 22:37 29.76330 -83.06498 41017 ft 547 kts 178°
2026-05-05 22:38 29.68841 -83.04934 41023 ft 546 kts 177°
2026-05-05 22:38 29.61365 -83.03376 41021 ft 546 kts 177°
2026-05-05 22:39 29.53894 -83.01820 41022 ft 545 kts 177°
2026-05-05 22:39 29.46431 -83.00270 41021 ft 545 kts 177°
2026-05-05 22:40 29.38973 -82.98721 41019 ft 544 kts 177°
2026-05-05 22:40 29.31519 -82.97178 41018 ft 544 kts 177°
2026-05-05 22:41 29.24123 -82.95646 41017 ft 543 kts 177°
2026-05-05 22:41 29.16688 -82.94111 41015 ft 543 kts 177°
2026-05-05 22:42 29.09249 -82.92575 41012 ft 542 kts 177°
2026-05-05 22:42 29.01822 -82.91047 41012 ft 543 kts 177°
2026-05-05 22:43 28.94398 -82.89518 41023 ft 542 kts 177°
2026-05-05 22:43 28.86969 -82.87994 41020 ft 542 kts 177°
2026-05-05 22:44 28.79553 -82.86471 41025 ft 541 kts 177°
2026-05-05 22:44 28.72134 -82.84953 41017 ft 542 kts 177°
2026-05-05 22:45 28.64725 -82.83436 41022 ft 541 kts 177°
2026-05-05 22:45 28.57318 -82.81925 41021 ft 541 kts 177°
2026-05-05 22:46 28.49900 -82.80411 41024 ft 541 kts 177°
2026-05-05 22:46 28.42489 -82.78903 41024 ft 541 kts 177°
2026-05-05 22:47 28.35084 -82.77396 41023 ft 540 kts 177°
2026-05-05 22:47 28.27674 -82.75893 41019 ft 541 kts 177°
2026-05-05 22:48 28.20326 -82.74401 41029 ft 540 kts 177°
2026-05-05 22:48 28.12919 -82.72903 41033 ft 541 kts 177°
2026-05-05 22:49 28.05519 -82.71405 41038 ft 540 kts 177°
2026-05-05 22:49 27.98127 -82.69914 41039 ft 541 kts 177°
2026-05-05 22:50 27.90729 -82.68418 41027 ft 540 kts 177°
2026-05-05 22:50 27.83340 -82.66747 41028 ft 542 kts 176°
2026-05-05 22:51 27.75951 -82.65104 41015 ft 541 kts 176°
2026-05-05 22:51 27.68559 -82.63432 41013 ft 543 kts 176°
2026-05-05 22:52 27.61148 -82.61779 41011 ft 543 kts 176°
2026-05-05 22:52 27.53736 -82.60115 41027 ft 543 kts 176°
2026-05-05 22:53 27.46338 -82.58464 41034 ft 542 kts 176°
2026-05-05 22:53 27.38932 -82.56810 41026 ft 543 kts 176°
2026-05-05 22:54 27.31528 -82.55159 41027 ft 542 kts 176°
2026-05-05 22:54 27.24126 -82.53512 41021 ft 542 kts 176°
2026-05-05 22:55 27.16777 -82.51877 41023 ft 542 kts 176°
2026-05-05 22:55 27.09378 -82.50236 41015 ft 542 kts 176°
2026-05-05 22:56 27.01977 -82.48593 41021 ft 541 kts 176°
2026-05-05 22:56 26.94589 -82.46959 41018 ft 542 kts 176°
2026-05-05 22:57 26.87198 -82.45323 41019 ft 541 kts 176°
2026-05-05 22:57 26.79804 -82.43691 41006 ft 541 kts 176°
2026-05-05 22:58 26.72412 -82.42060 41004 ft 541 kts 176°
2026-05-05 22:58 26.65028 -82.40435 41000 ft 541 kts 176°
2026-05-05 22:59 26.57656 -82.38809 40844 ft 532 kts 176°
2026-05-05 22:59 26.54058 -82.38011 40085 ft 520 kts 176°
2026-05-05 22:59 26.50560 -82.37241 39414 ft 505 kts 177°
2026-05-05 22:59 26.47155 -82.36499 38757 ft 493 kts 177°
2026-05-05 23:00 26.40581 -82.35059 37445 ft 472 kts 177°
2026-05-05 23:00 26.37371 -82.34360 36834 ft 470 kts 177°
2026-05-05 23:00 26.34144 -82.33661 36216 ft 476 kts 177°
2026-05-05 23:01 26.30859 -82.32945 35587 ft 484 kts 176°
2026-05-05 23:01 26.27534 -82.32213 34947 ft 490 kts 176°
2026-05-05 23:01 26.24178 -82.31474 34296 ft 493 kts 175°
2026-05-05 23:01 26.20805 -82.30738 33598 ft 494 kts 175°
2026-05-05 23:02 26.17482 -82.30013 32957 ft 493 kts 175°
2026-05-05 23:02 26.14116 -82.29279 32306 ft 494 kts 175°
2026-05-05 23:02 26.10736 -82.28542 31651 ft 495 kts 175°
2026-05-05 23:02 26.07349 -82.27804 30993 ft 496 kts 175°
2026-05-05 23:03 26.03952 -82.27064 30340 ft 498 kts 175°
2026-05-05 23:03 26.00573 -82.26326 29637 ft 492 kts 175°
2026-05-05 23:03 25.97240 -82.25597 28989 ft 485 kts 175°
2026-05-05 23:03 25.93952 -82.24885 28369 ft 481 kts 176°
2026-05-05 23:04 25.90679 -82.24177 27728 ft 476 kts 175°
2026-05-05 23:04 25.87447 -82.23473 27097 ft 471 kts 175°
2026-05-05 23:04 25.84243 -82.22776 26479 ft 467 kts 175°
2026-05-05 23:04 25.81069 -82.22088 25864 ft 463 kts 175°
2026-05-05 23:05 25.77924 -82.21408 25263 ft 458 kts 175°
2026-05-05 23:05 25.74814 -82.20733 24660 ft 454 kts 175°
2026-05-05 23:05 25.71721 -82.20063 24064 ft 450 kts 175°
2026-05-05 23:05 25.68660 -82.19401 23453 ft 447 kts 175°
2026-05-05 23:06 25.65629 -82.18744 22834 ft 441 kts 175°
2026-05-05 23:06 25.62637 -82.18096 22259 ft 436 kts 175°
2026-05-05 23:06 25.59678 -82.17457 21686 ft 431 kts 175°
2026-05-05 23:06 25.56748 -82.16825 21118 ft 427 kts 175°
2026-05-05 23:07 25.53849 -82.16199 20556 ft 422 kts 175°
2026-05-05 23:07 25.50980 -82.15579 20003 ft 418 kts 175°
2026-05-05 23:07 25.48139 -82.14966 19458 ft 413 kts 175°
2026-05-05 23:07 25.45329 -82.14361 18912 ft 410 kts 175°
2026-05-05 23:08 25.42546 -82.13761 18377 ft 405 kts 175°
2026-05-05 23:08 25.39793 -82.13168 17798 ft 401 kts 175°
2026-05-05 23:08 25.37064 -82.12581 17248 ft 398 kts 175°
2026-05-05 23:08 25.34360 -82.11999 16721 ft 395 kts 174°
2026-05-05 23:09 25.31668 -82.11421 16206 ft 393 kts 174°
2026-05-05 23:09 25.28996 -82.10845 15689 ft 389 kts 174°
2026-05-05 23:09 25.26348 -82.10276 15180 ft 387 kts 174°
2026-05-05 23:09 25.23714 -82.09711 14669 ft 384 kts 174°
2026-05-05 23:10 25.21097 -82.09149 14161 ft 382 kts 174°
2026-05-05 23:10 25.18535 -82.08599 13646 ft 379 kts 174°
2026-05-05 23:10 25.15934 -82.08040 13128 ft 374 kts 174°
2026-05-05 23:10 25.13389 -82.07495 12634 ft 371 kts 174°
2026-05-05 23:11 25.10864 -82.06955 12150 ft 369 kts 173°
2026-05-05 23:11 25.08356 -82.06417 11659 ft 365 kts 173°
2026-05-05 23:11 25.05917 -82.05893 11194 ft 354 kts 173°
2026-05-05 23:11 25.03580 -82.05387 10731 ft 332 kts 173°
2026-05-05 23:12 25.01377 -82.04915 10301 ft 314 kts 173°
2026-05-05 23:12 24.99287 -82.04471 9895 ft 299 kts 173°
2026-05-05 23:12 24.97274 -82.04043 9486 ft 291 kts 173°
2026-05-05 23:12 24.95302 -82.03623 9109 ft 288 kts 173°
2026-05-05 23:13 24.93336 -82.03204 8731 ft 288 kts 173°
2026-05-05 23:13 24.91366 -82.02783 8348 ft 288 kts 172°
2026-05-05 23:13 24.89406 -82.02364 7972 ft 287 kts 172°
2026-05-05 23:13 24.87455 -82.01947 7595 ft 285 kts 172°
2026-05-05 23:14 24.85512 -82.01532 7223 ft 283 kts 172°
2026-05-05 23:14 24.83586 -82.01121 6842 ft 281 kts 172°
2026-05-05 23:14 24.81674 -82.00713 6480 ft 279 kts 172°
2026-05-05 23:14 24.79778 -82.00309 6094 ft 277 kts 172°
2026-05-05 23:15 24.77889 -81.99906 5728 ft 276 kts 172°
2026-05-05 23:15 24.76004 -81.99505 5367 ft 275 kts 171°
2026-05-05 23:15 24.74127 -81.99105 4999 ft 274 kts 171°
2026-05-05 23:15 24.72252 -81.98706 4636 ft 274 kts 171°
2026-05-05 23:16 24.70412 -81.98313 4271 ft 264 kts 170°
2026-05-05 23:16 24.68647 -81.97936 3922 ft 253 kts 170°
2026-05-05 23:16 24.66946 -81.97575 3599 ft 244 kts 170°
2026-05-05 23:16 24.65304 -81.97226 3277 ft 237 kts 170°
2026-05-05 23:17 24.63707 -81.96911 2979 ft 229 kts 173°
2026-05-05 23:17 24.62175 -81.96889 2992 ft 216 kts 180°
2026-05-05 23:17 24.60663 -81.96865 2992 ft 219 kts 180°
2026-05-05 23:17 24.59130 -81.96834 3000 ft 222 kts 180°
2026-05-05 23:18 24.57575 -81.96768 2904 ft 223 kts 175°
2026-05-05 23:18 24.56204 -81.95996 2613 ft 226 kts 136°
2026-05-05 23:18 24.55469 -81.94518 2437 ft 222 kts 103°
2026-05-05 23:18 24.55412 -81.92847 2331 ft 219 kts 88°
2026-05-05 23:19 24.55457 -81.91171 2206 ft 221 kts 87°
2026-05-05 23:19 24.55480 -81.89530 2002 ft 209 kts 88°
2026-05-05 23:19 24.55492 -81.87931 1812 ft 214 kts 88°
2026-05-05 23:19 24.55508 -81.86287 1620 ft 204 kts 88°
2026-05-05 23:20 24.55521 -81.84859 1441 ft 174 kts 88°
2026-05-05 23:20 24.55536 -81.83566 1230 ft 173 kts 88°
2026-05-05 23:20 24.55551 -81.82250 1017 ft 168 kts 88°
2026-05-05 23:20 24.55562 -81.81052 798 ft 146 kts 88°
2026-05-05 23:21 24.55573 -81.79965 607 ft 141 kts 87°
2026-05-05 23:21 24.55584 -81.78900 428 ft 139 kts 87°
2026-05-05 23:21 24.55596 -81.77839 244 ft 140 kts 86°
2026-05-05 23:21 24.55605 -81.76775 45 ft 137 kts 86°
2026-05-05 23:22 24.55613 -81.75917 9 ft 72 kts 89°
2026-05-05 23:22 24.55616 -81.75622 13 ft 17 kts 96°
2026-05-05 23:22 24.55536 -81.75602 13 ft 12 kts 226°
2026-05-05 23:22 24.55528 -81.75669 12 ft 7 kts 252°
2026-05-05 23:23 24.55492 -81.75679 12 ft 5 kts 178°
2026-05-05 23:23 24.55447 -81.75679 13 ft 5 kts 202°
2026-05-05 23:23 24.55469 -81.75698 13 ft 1 kts 358°
2026-05-05 23:23 24.55471 -81.75698 13 ft 0 kts 360°